Location: San Martino di Castrozza
(46.2667°N, 11.8000°E)
Time: 03:46:50
(UTC+00:00)

CBERS-1 - Pass Details

Date: 23 April 2021
Orbit: 769 x 778 km, 98.7° (Epoch: 14 May)

Event Time Altitude Azimuth Distance (km) Brightness Sun altitude
Rises 02:12:25 0° 11° (N) 3,255 8.1 -18.5°
Reaches altitude 10° 02:14:45 10° 8° (N) 2,323 7.2 -18.2°
Maximum altitude 02:19:47 60° 289° (WNW) 878 4.1 -17.6°
Enters shadow 02:22:13 30° 221° (SW) 1,363 4.7 -17.2°
